Powrót do katalogu

COSMOS 1417 DEB

AktywnyPO
NORAD 37865·DEBRIS·🇷🇺 Russia

Wystrzelony Oct 19, 1982 z Plesetsk Cosmodrome

Loading…

Następne Przeloty (najbliższe 24 godziny)

TLE

ŚwieżeSource: Space-Track

Epoka: Sep 13, 2026, 01:46 UTC

1 37865U 82102D   26256.07366150  .00000069  00000-0  55281-4 0  9991
2 37865  82.9722 191.3799 0034834 165.5294 194.6869 13.76091173597938

Śledź COSMOS 1417 DEB w czasie rzeczywistym z AllMySat

Download on the App Store